This is the latest recevied weather packets stored in our database for station/object NZ3C. If no packets are shown the sender has not sent any weather packets the latest 10 day(s).
| Time | Temp. | Humidity | Pressure | Rain* | Wind** | Luminosity | Snow |
|---|---|---|---|---|---|---|---|
| 1777869695 | 6.67° C | 90% | 1019.5 hPa | 0 mm | - | 0 W/m² | - |
| 1777869392 | 7.22° C | 90% | 1019.5 hPa | 0 mm | - | 0 W/m² | - |
| 1777869089 | 7.22° C | 90% | 1019.5 hPa | 0 mm | - | 0 W/m² | - |
| 1777868786 | 7.78° C | 89% | 1019.5 hPa | 0 mm | - | 0 W/m² | - |
| 1777868483 | 7.78° C | 88% | 1019.4 hPa | 0 mm | - | 0 W/m² | - |
| 1777868179 | 7.78° C | 85% | 1019.5 hPa | 0 mm | - | 0 W/m² | - |
| 1777867875 | 7.78° C | 81% | 1019.5 hPa | 0 mm | - | 0 W/m² | - |
| 1777867573 | 7.78° C | 81% | 1019.5 hPa | 0 mm | - | 0 W/m² | - |
| 1777867269 | 7.78° C | 84% | 1019.5 hPa | 0 mm | - | 0 W/m² | - |
| 1777866966 | 7.78° C | 86% | 1019.5 hPa | 0 mm | - | 0 W/m² | - |
| 1777866662 | 7.78° C | 90% | 1019.3 hPa | 0 mm | - | 0 W/m² | - |
| 1777866360 | 7.22° C | 93% | 1019.2 hPa | 0 mm | - | 0 W/m² | - |
| 1777866057 | 7.22° C | 92% | 1019.3 hPa | 0 mm | - | 0 W/m² | - |
| 1777865755 | 7.22° C | 92% | 1019.3 hPa | 0 mm | - | 0 W/m² | - |
| 1777865452 | 7.22° C | 92% | 1019.3 hPa | 0 mm | - | 0 W/m² | - |
| 1777865149 | 7.78° C | 93% | 1019.3 hPa | 0 mm | - | 0 W/m² | - |
| 1777864846 | 7.22° C | 93% | 1019.4 hPa | 0 mm | - | 0 W/m² | - |
| 1777864543 | 7.22° C | 93% | 1019.4 hPa | 0 mm | - | 0 W/m² | - |
| 1777864239 | 7.22° C | 92% | 1019.2 hPa | 0 mm | - | 0 W/m² | - |
| 1777863936 | 7.22° C | 92% | 1019.4 hPa | 0 mm | - | 0 W/m² | - |
| 1777863632 | 7.78° C | 92% | 1019.5 hPa | 0 mm | - | 0 W/m² | - |
| 1777863329 | 7.78° C | 92% | 1019.4 hPa | 0 mm | - | 0 W/m² | - |
| 1777863026 | 7.78° C | 92% | 1019.3 hPa | 0 mm | - | 0 W/m² | - |
| 1777862723 | 7.78° C | 92% | 1019.3 hPa | 0 mm | - | 0 W/m² | - |
| 1777862420 | 7.78° C | 91% | 1019.4 hPa | 0 mm | - | 0 W/m² | - |
* Rain latest hour (hover to see other rain measurements)
** Current wind speed in m/s (hover to see current wind gust speed)